www.pogodaiklimat.ru

Погода и климат >> Архив погоды >> Россия >> Краснодарский край >> Староминская


ПОГОДА в Староминская

  • Прогноз погоды в Староминская
  • Монитор погоды в Староминская

АРХИВ ПОГОДЫ в Староминская

Время (UTC), дата Ветер
(напр.,м/с)
 
Видим.   Явления Облачность Т
(С)
Тd
(С)
f
(%)
Тe
(С)
Тes
(С)
Комфортность P
(гПа)
Po
(гПа)
Тmin
(С)
Tmax
(С)
R
(мм)
R24
(мм)
S
(см)
15 12.06 ЮВ 2
{10}
10 км 9/8 600 м
[Sc Ci fib]
+30.6 +13.2 35 +32 +32 жарко 1008.5 1003.7 +32.3
18 12.06 штиль 0 10 км 9/9 600 м
[Cb calv]
+24.5 +16.9 63 +28 +28 душно 1009.3 1004.4
21 12.06 СЗ 1 10 км 4/4 600 м
[Sc]
+23.5 +16.4 64 +27 +27 душно 1009.1 1004.2
00 13.06 штиль 0 10 км ясно +20.7 +15.6 73 +24 +24 комфорт 1009.3 1004.4
03 13.06 В 1 10 км 8/3 600 м
[Sc Ci fib]
+20.7 +13.9 65 +24 +25 комфорт 1009.6 1004.6 +18.1
06 13.06 В 3 10 км 9/8 600 м
[Sc Cc]
+27.1 +11.9 39 +28 +30 жарко 1010.9 1006.0
09 13.06 В 4 10 км 9/0
[Ci]
+32.1 +6.4 20 +30 +41 жарко 1011.5 1006.7
12 13.06 СВ 4-10
{10}
10 км 9/0
[Ci fib]
+33.2 +6.4 19 +31 +39 жарко 1011.3 1006.5
15 13.06 В 5-10
{13}
10 км 9/9 600 м
[Cb calv]
+29.4 +6.3 23 +28 +28 жарко 1011.9 1007.1 +33.4
18 13.06 штиль 0
{13}
10 км 10/10 600 м
[Cb calv]
+24.1 +10.2 41 +25 +25 комфорт 1012.3 1007.5
21 13.06 СВ 1 10 км 9/9 600 м
[Sc]
+21.4 +12.6 57 +24 +24 комфорт 1014.4 1009.5
00 14.06 СВ 3 10 км 8/3 600 м
[Sc Ci fib]
+22.0 +13.0 57 +25 +25 комфорт 1013.6 1008.6
03 14.06 В 4 10 км 9/9 600 м
[Sc]
+21.7 +12.5 56 +24 +24 комфорт 1015.3 1010.3 +20.2
06 14.06 В 4
{10}
10 км 3/0
[Ci fib]
+23.3 +9.2 41 +25 +31 комфорт 1017.1 1012.1
09 14.06 СВ 4
{10}
10 км 4/0
[Ci fib]
+27.6 +9.3 32 +28 +39 жарко 1016.7 1011.8
12 14.06 СВ 3
{11}
10 км 8/0
[Ci fib]
+30.0 +8.9 27 +29 +39 жарко 1015.8 1010.9
15 14.06 СВ 3
{10}
10 км 6/0
[Ci fib]
+28.5 +7.0 26 +28 +30 жарко 1015.4 1010.5 +30.1
18 14.06 СВ 2 10 км ясно +23.3 +7.4 36 +24 +24 комфорт 1016.9 1011.9
21 14.06 СВ 2 10 км ясно +20.8 +2.9 31 +22 +22 комфорт 1015.2 1010.2
00 15.06 С 2 10 км ясно +18.4 +2.1 34 +19 +19 1015.1 1010.0
03 15.06 В 2 10 км ясно +18.5 +3.4 37 +19 +20 1014.4 1009.4 +17.6
06 15.06 СВ 3 10 км 3/3 600 м
[Sc]
+25.2 +7.5 32 +25 +31 комфорт 1014.3 1009.4
09 15.06 В 3 10 км 4/4 600 м
[Sc]
+30.4 +9.9 28 +30 +39 жарко 1013.7 1008.6
12 15.06 В 2 10 км 3/3 600 м
[Sc]
+32.1 +7.3 21 +30 +40 жарко 1012.1 1007.3
15 15.06 В 2 10 км ясно +31.7 +2.9 16 +29 +32 жарко 1010.7 1005.9 +32.4
18 15.06 С 1 10 км 3/3 600 м
[Sc]
+24.3 +6.1 31 +24 +24 комфорт 1013.8 1008.9
21 15.06 СВ 1 10 км ясно +18.5 +7.1 47 +20 +20 1011.1 1006.1
00 16.06 СЗ 1 10 км ясно +17.3 +5.7 46 +18 +18 1010.4 1005.4
03 16.06 штиль 0 10 км ясно +17.9 +9.6 58 +18 +19 1010.0 1005.0 +13.9
06 16.06 СВ 2 10 км ясно +28.1 +7.8 28 +28 +38 жарко 1010.3 1005.4
09 16.06 С 2 10 км ясно +33.3 +3.4 15 +30 +49 жарко 1009.7 1004.9
12 16.06 СЗ 1 10 км ясно +34.6 +2.9 14 +32 +47 жарко 1008.8 1004.0
15 16.06 СЗ 2 10 км ясно +33.4 +6.1 18 +31 +34 жарко 1007.8 1003.0 +34.9
18 16.06 З 1 10 км ясно +26.0 +9.6 36 +27 +27 жарко 1008.0 1003.1
21 16.06 С 2 10 км ясно +22.3 +15.0 63 +26 +26 жарко 1008.6 1003.7
00 17.06 СВ 2 10 км ясно +19.9 +14.8 72 +23 +23 комфорт 1009.6 1004.6
03 17.06 СВ 3 10 км 3/3 600 м
[Sc]
+19.0 +15.0 78 +20 +21 1011.1 1006.1 +18.4
06 17.06 СВ 3 10 км ясно +24.4 +15.1 56 +27 +36 жарко 1012.1 1007.2
09 17.06 СВ 3 10 км ясно +28.7 +13.3 39 +30 +46 жарко 1011.9 1007.1
12 17.06 СВ 3 10 км 3/3 1000 м
[Cu hum]
+30.6 +11.5 31 +31 +39 жарко 1010.8 1006.0
15 17.06 СВ 4 10 км 3/3 1000 м
[Cu hum]
+29.8 +10.8 31 +30 +31 жарко 1011.1 1006.3 +30.9
18 17.06 СВ 2 10 км ясно +25.2 +11.9 43 +27 +27 жарко 1011.9 1007.0
21 17.06 СВ 2 10 км ясно +21.1 +10.7 51
00 18.06 СВ 1 10 км ясно +18.5 +10.0 58 +20 +20 1013.2 1008.2
03 18.06 СВ 2 10 км ясно +19.6 +10.5 56 +21 +22 комфорт 1013.8 1008.8 +16.8
06 18.06 СВ 2 10 км ясно +27.0 +9.6 34 +27 +38 жарко 1013.5 1008.6
09 18.06 СВ 2 10 км ясно +29.9 +6.6 23 +29 +47 жарко 1012.9 1008.1
12 18.06 В 2 10 км ясно +31.0 +7.5 23 +30 +43 жарко 1012.0 1007.2
15 18.06 СВ 3 10 км ясно +30.8 +7.9 24 +30 +32 жарко 1011.0 1006.2 +31.6
18 18.06 С 1 10 км ясно +23.9 +10.6 43 +25 +25 комфорт 1011.9 1007.0
21 18.06 штиль 0 10 км ясно +20.0 +11.5 58 +21 +21 комфорт 1012.2 1007.2
00 19.06 штиль 0 10 км ясно +18.9 +10.7 59 +20 +20 1011.8 1006.8
03 19.06 штиль 0 10 км ясно +19.4 +11.7 61 +20 +22 1012.1 1007.1 +16.8
06 19.06 В 2 1000 м ясно +28.3 +11.0 34 +29 +39 жарко 1012.2 1007.3
09 19.06 СВ 2 10 км ясно +31.5 +9.7 26 +31 +50 жарко 1011.7 1007.1
12 19.06 СВ 2 10 км ясно +32.9 +9.8 24 +32 +46 жарко 1010.5 1005.7

 

Местоположение метеостанции Староминская (Краснодарский край, Россия): широта 46.53 долгота 39.02 высота над уровнем моря 43 м.

В архиве по умолчанию представлена погода в Староминская за последнюю неделю. Архивные данные за месяц целиком и за предыдущие месяцы, начиная с января 2011 года, Вы можете получить, выбрав интересующий диапазон дат из раскрывающегося списка и нажав кнопку "Ввод!".


*Определитесь, кто Вы:
робот инопланетянин человек

Внимание! Время в таблицах - всемирное. Для получения местного времени необходимо прибавить поправку, которая равна 3 ч.

Смотрите также архив погоды в соседних городах и на ближайших метеорологических станциях:

Погода в Кущевской (Краснодарский край, Россия) (46 км)
Погода в Маргаритово (Ростовская область, Россия) (46 км)
Погода в Каневской (Краснодарский край, Россия) (51 км)
Погода в Ейске (Краснодарский край, Россия) (65 км)
Погода в Таганроге (Ростовская область, Россия) (75 км)
Погода в Сосыке (Краснодарский край, Россия) (76 км)
Погода в Приморско-Ахтарске (Краснодарский край, Россия) (87 км)
Погода в Должанке (Краснодарский край, Россия) (100 км)
Погода в Тимашевске (Краснодарский край, Россия) (100 км)
Погода в Ростове-на-Дону (Ростовская область, Россия) (102 км)

Пояснения к столбцам:

Ветер - указаны скорость ветра в м/с - средняя за 10 мин, порывы в срок и между сроками (в фигурных скобках) и направление, откуда дует ветер: С - северный, СВ - северо-восточный, В - восточный, ЮВ - юго-восточный, Ю - южный, ЮЗ - юго-западный, З - западный, СЗ - северо-западный.
Видимость - горизонтальная дальность видимости в метрах или километрах. При видимости от 1 до 10 км при отсутствии осадков обычно наблюдается дымка, при ухудшении видимости до 1 км и менее - туман. В сухую погоду видимость может ухудшаться дымом, пылью или мглою.
Явления - указаны атмосферные явления, наблюдавшиеся в срок или в последний час перед сроком; фигурными скобками обозначены явления, наблюдавшиеся между сроками (за 1-3 часа до срока); квадратными скобками обозначены град или гололедные отложения с указанием их диаметра в мм.
Облачность - указаны через наклонную черту общая и нижняя облачность в баллах и высота нижней границы облаков в метрах; квадратными скобками обозначены формы облаков: Ci - перистые, Cs - перисто-слоистые, Cc - перисто-кучевые, Ac - высококучевые, As - высокослоистые, Sc - слоисто-кучевые, Ns - слоисто-дождевые, Cu - кучевые, Cb - кучево-дождевые. Подробнее классификацию облаков см. в Атласе облаков (PDF).
T - Температура воздуха - температура, измеренная на высоте 2 м над землей.
Td - Температура точки росы - температура, при понижении до которой содержащийся в воздухе водяной пар достигнет насыщения.
f - Относительная влажность воздуха - влажноcть воздуха, измеренная на высоте 2 м над землей.
Te - Эффективная температура - температура, которую ощущает одетый по сезону человек в тени. Характеристика душности погоды. При расчете учитывается влияние влажности воздуха и скорости ветра на теплоощущения человека.
Tes - Эффективная температура на солнце - температура, которую ощущает человек, с поправкой на солнечный нагрев. Характеристика знойности погоды. Зависит от высоты солнца над горизонтом, облачности и скорости ветра. Ночью, в пасмурную погоду, а также при ветре 12 м/с и более поправка равна нулю.
P - Атмосферное давление - приведенное к уровню моря атмосферное давление.
Po - Атмосферное давление - измеренное на уровне метеостанции атмосферное давление.
Tmin - Минимальная температура - минимум температуры воздуха на высоте 2 м над землей.
Tmax - Максимальная температура - максимум температуры воздуха на высоте 2 м над землей.
R - Количество осадков - Количество выпавших осадков за период времени, мм. При наведении курсора мыши на число - период времени, за который выпало указанное количество осадков.
R24 - Количество осадков - Количество выпавших осадков за 24 часа, мм.
S - Снежный покров - Высота снежного покрова, см. При наведении курсора мыши на число - состояние снежного покрова и степень покрытия местности в баллах.